• Processing (Info)

  • MPEC 2019-F145: 2019 FN1

    The following Minor Planet Electronic Circular may be linked-to from your own Web pages, but must not otherwise be redistributed electronically.

    A form allowing access to any MPEC is at the bottom of this page.


    Read MPEC 2019-F144 Read MPEC 2019-F146


    M.P.E.C. 2019-F145                               Issued 2019 Mar. 31, 22:32 UT
    
         The Minor Planet Electronic Circulars contain information on unusual
             minor planets and routine data on comets.  They are published
        on behalf of Division F of the International Astronomical Union by the
              Minor Planet Center, Smithsonian Astrophysical Observatory,
                              Cambridge, MA 02138, U.S.A.
    
                 Prepared using the Tamkin Foundation Computer Network
    
                                  MPC@CFA.HARVARD.EDU
                URL https://www.minorplanetcenter.net/    ISSN 1523-6714
    
                                       2019 FN1
    
    Observations:
         K19F01N* C2019 03 29.22884 11 45 22.95 -01 53 11.1          20.1 GVEF145G96
         K19F01N  C2019 03 29.23442 11 45 29.19 -01 51 22.8          19.9 GVEF145G96
         K19F01N  C2019 03 29.24001 11 45 35.49 -01 49 33.5          19.8 GVEF145G96
         K19F01N  C2019 03 29.24559 11 45 41.75 -01 47 45.2          20.2 GVEF145G96
         K19F01N  C2019 03 29.34475 11 47 34.44 -01 15 04.0          20.3 GVEF145I52
         K19F01N  C2019 03 29.34563 11 47 35.50 -01 14 46.8          20.1 GVEF145I52
         K19F01N  C2019 03 29.34674 11 47 36.71 -01 14 24.4                VEF145I52
         K19F01N  C2019 03 29.34736 11 47 37.49 -01 14 12.6          19.7 GVEF145I52
         K19F01N KC2019 03 29.90102612 00 11.28 +02 02 15.0          20.1 GVEF145L01
         K19F01N KC2019 03 29.90161712 00 12.07 +02 02 28.8          20.2 GVEF145L01
         K19F01N KC2019 03 29.90220912 00 12.85 +02 02 42.1          20.0 GVEF145L01
         K19F01N KC2019 03 29.90339612 00 14.44 +02 03 09.1          20.1 GVEF145L01
         K19F01N pC2019 03 29.90597312 00 17.88 +02 04 08.1          20.3 GVEF145L01
         K19F01N KC2019 03 29.93117 12 00 52.56 +02 13 27.0          20.3 GVEF145K87
         K19F01N KC2019 03 29.93133 12 00 52.78 +02 13 30.7          20.2 GVEF145K87
         K19F01N KC2019 03 29.93149 12 00 53.00 +02 13 34.5          20.1 GVEF145K87
         K19F01N KC2019 03 30.00322 12 02 31.25 +02 41 31.6          19.8 GVEF145203
         K19F01N KC2019 03 30.00688912 02 38.67 +02 43 01.3          19.7 VqEF145I93
         K19F01N KC2019 03 30.00907712 02 42.25 +02 43 24.3          19.7 GVEF145J95
         K19F01N KC2019 03 30.01328812 02 48.10 +02 45 02.4          19.2 GVEF145J95
         K19F01N KC2019 03 30.01848412 02 55.37 +02 47 04.5          20.0 GVEF145J95
         K19F01N KC2019 03 30.01865412 02 54.80 +02 47 35.9          19.9 VqEF145I93
         K19F01N KC2019 03 30.02476612 03 04.09 +02 49 31.7          20.1 GVEF145J95
         K19F01N KC2019 03 30.03183812 03 13.07 +02 52 44.8          19.7 VqEF145I93
         K19F01N KC2019 03 30.03473 12 03 14.93 +02 53 47.8                VEF145203
         K19F01N KC2019 03 30.10044 12 04 47.36 +03 19 45.5          19.3  VEF145104
         K19F01N KC2019 03 30.10324 12 04 51.43 +03 20 52.2          19.3  VEF145104
         K19F01N KC2019 03 30.10605 12 04 55.48 +03 21 59.1          19.8  VEF145104
         K19F01N  C2019 03 30.31873 12 10 34.15 +04 49 37.5          19.9 GVEF145I52
         K19F01N  C2019 03 30.31985 12 10 35.82 +04 50 05.9          19.8 GVEF145I52
         K19F01N  C2019 03 30.32099 12 10 37.47 +04 50 34.1          20.1 GVEF145I52
         K19F01N KC2019 03 30.86337 12 26 10.14 +08 48 21.7          19.2 RVEF145K63
         K19F01N KC2019 03 30.86451 12 26 12.09 +08 48 54.1          19.2 RVEF145K63
         K19F01N KC2019 03 30.86712 12 26 16.59 +08 50 06.2          19.1 RVEF145K63
         K19F01N KC2019 03 31.00347 12 30 13.95 +09 54 03.4          19.5 GVEF145204
         K19F01N KC2019 03 31.00859 12 30 22.98 +09 56 28.7                VEF145204
         K19F01N  C2019 03 31.15324 12 35 19.60 +11 06 52.5          19.3 GVEF145I52
         K19F01N  C2019 03 31.15380 12 35 20.66 +11 07 08.4          19.3 GVEF145I52
         K19F01N  C2019 03 31.15495 12 35 22.81 +11 07 41.9          19.4 GVEF145I52
         K19F01N  C2019 03 31.15550 12 35 23.83 +11 07 58.8          18.8 GVEF145I52
    
    Observer details:
    104 San Marcello Pistoiese.  Observers P. Bacci, M. Maestripieri.  Measurers
        P. Bacci, L. Tesi, G. Fagioli.  0.60-m reflector + CCD.
    203 GiaGa Observatory.  Observers S. Foglia, G. Galli.  Measurer G. Galli.
        0.36-m f/5.76 Schmidt-Cassegrain + CCD.
    204 Schiaparelli Observatory.  Observer L. Buzzi.  0.84-m f/3.5 reflector +
        CCD.
    G96 Mt. Lemmon Survey.  Observer B. M. Africano.  Measurers B. M. Africano,
        E. J. Christensen, G. A. Farneth, D. C. Fuls, A. R. Gibbs, A. D. Grauer,
        H. Groeller, R. A. Kowalski, S. M. Larson, G. J. Leonard, T. A. Pruyne,
        R. L. Seaman, F. C. Shelly.  1.5-m reflector + 10K CCD.
    I52 Steward Observatory, Mt. Lemmon Station.  Observer H. Groeller.
        Measurers B. M. Africano, E. J. Christensen, G. A. Farneth, D. C. Fuls,
        A. R. Gibbs, A. D. Grauer, H. Groeller, R. A. Kowalski, S. M. Larson,
        G. J. Leonard, T. A. Pruyne, R. L. Seaman, F. C. Shelly.  1.0-m reflector
        + CCD.
    I93 St Pardon de Conques.  Observer F. Losse.  0.40-m f/3.7 reflector + CCD.
    J95 Great Shefford.  Observer P. Birtwhistle.  0.41-m f/6.3
        Schmidt-Cassegrain + CCD.
    K63 G. Pascoli Observatory, Castelvecchio Pascoli.  Observer R. Bacci.
        0.41-m f/3.2 Newtonian reflector + CCD.
    K87 Dettelbach Vineyard Observatory.  Observer B. Haeusler.  0.30-m
        Schmidt-Cassegrain + CCD.
    L01 Visnjan Observatory, Tican.  Observers K. Korlevic, G. Kervina.  Measurer
        K. Korlevic.  1.0-m f/2.9 reflector + CCD.
    
    Orbital elements:
    2019 FN1                                                 Earth MOID = 0.0219 AU
    Epoch 2019 Apr. 27.0 TT = JDT 2458600.5                 MPC
    M   0.64767              (2000.0)            P               Q
    n   0.50179587     Peri.   31.06222     -0.77665051     +0.62933905
    a   1.5683801      Node   188.10806     -0.61038551     -0.76256335
    e   0.3711329      Incl.   11.16871     -0.15570329     -0.14976482
    P   1.96           H   27.2           G   0.15           U   7
    Residuals in seconds of arc
    190329 G96  0.2+  0.2+    190329 K87  0.6-  0.2-    190330 I52  0.3-  0.3-
    190329 G96  0.1-  0.0     190329 K87  0.6-  0.0     190330 I52  0.1+  0.1+
    190329 G96  0.2+  0.5+    190330 203  0.2+  0.5+    190330 I52  0.3-  0.2-
    190329 G96  0.0   0.1-    190330 I93  0.4+  0.2+    190330 K63  0.6+  0.8+
    190329 I52  0.5-  0.8+    190330 J95  0.1-  0.3-    190330 K63  0.3+  1.4+
    190329 I52  0.1+  0.4+    190330 J95  0.0   0.5-    190330 K63  0.4+  0.5+
    190329 I52  1.0-  0.5+    190330 J95  0.7+  0.1+    190331 204  0.1-  0.2+
    190329 I52  0.1-  0.1-    190330 I93  0.6-  0.2-    190331 204  0.3-  0.1-
    190329 L01  0.2+  0.3-    190330 J95  0.3+  0.2+    190331 I52  0.4-  0.3+
    190329 L01  0.1+  0.0     190330 I93  0.0   0.1-    190331 I52  0.2-  0.3-
    190329 L01  0.1-  0.2-    190330 203  0.5+  0.1-    190331 I52  0.2-  0.8-
    190329 L01  0.2-  0.3-    190330 104  0.4-  0.0     190331 I52  0.3-  0.1-
    190329 L01  0.5-  0.1-    190330 104  0.1+  0.1+
    190329 K87  0.6-  0.2-    190330 104  0.1-  0.2+
    
    Ephemeris:
    2019 FN1                 a,e,i = 1.57, 0.37, 11                  q = 0.9863
    Date    TT    R. A. (2000) Decl.     Delta      r     Elong.  Phase     V
    2019 03 01    09 57 06.1 -26 46 23   0.1765  1.1373   143.4    31.3    25.0
    ...
    2019 03 16    10 09 53.8 -24 47 03   0.09301 1.0722   145.2    31.9    23.5
    ...
    2019 03 24    10 41 37.4 -17 55 01   0.05228 1.0434   152.5    26.2    22.1
    ...
    2019 03 30    12 02 29.6 +02 43 39   0.02696 1.0251   170.3     9.4    20.0
    2019 03 31    12 30 09.0 +09 55 35   0.02424 1.0223   166.1    13.5    20.0
    2019 04 01    13 05 12.3 +18 23 06   0.02242 1.0197   156.5    23.0    20.1
    ...
    2019 04 07    17 48 47.9 +46 35 47   0.03348 1.0057    97.5    80.7    22.7
    ...
    2019 04 15    19 53 06.0 +42 19 10   0.06956 0.9927    79.5    96.5    24.9
    ...
    2019 04 30    20 43 21.8 +38 04 24   0.1404  0.9873    77.9    94.1    26.3
    
    A. U. Tomatic                (C) Copyright 2019 MPC           M.P.E.C. 2019-F145
    

    Read MPEC 2019-F144 Read MPEC 2019-F146


    MPEC number:

    Enter an MPEC number in one of the following forms:

    • 1997-B01 (the full form)
    • J97B01 (the packed version of the full form)
    • B01 (the abbreviated form)